Flag for Germany Weather for the Past 2 Weeks in Neustadt am Rübenberge, Lower Saxony, Germany

Now
41 °F

Light rain. Partly sunny.


Feels Like: 32 °F
Forecast: 37 / 43 °F
Wind: 18 mph from East

Location: Wunstorf Airport

Current Time: Feb 9, 2016 at 5:31:55 PM

Latest Report: Feb 9, 2016 at 4:20 PM


Visibility: N/A

Pressure: 28.94 "Hg

Humidity: 93%

Dew point: 39 °F

Location of Neustadt am RübenbergeLocation

Historic Weather in Neustadt am Rübenberge — Graph

°F

Neustadt am Rübenberge Temperature Yesterday

Maximum temperature yesterday: 50 °F (at 2:20 PM)
Minimum temperature yesterday: 43 °F (at 12:20 AM)
Average temperature yesterday: 45 °F

High & Low Weather Summary for the Past Weeks

 TemperatureHumidityPressure
High54 °F (Jan 27, 4:20 PM)100% (Jan 25, 6:20 PM)30.24 "Hg (Jan 25, 6:20 PM)
Low36 °F (Jan 31, 3:20 AM)58% (Feb 2, 10:20 AM)28.94 "Hg (Feb 9, 4:20 PM)
Average45 °F80%29.85 "Hg
* Reported Jan 25 4:20 PM — Feb 9 4:20 PM, Neustadt am Rübenberge, Weather by CustomWeather, © 2016

Note: Actual official high and low records may vary slightly from our data, if they occured in-between our weather recording intervals... More about our weather records

Advertising

Neustadt am Rübenberge Weather History for the Previous 24 Hours

 ConditionsComfort  
Time TempWeatherWind HumidityBarometerVisibility
4:20 PM
Tue, Feb 9
41 °FLight rain. Partly sunny.18 mph93%28.94 "HgN/A
3:20 PM43 °FLight rain. Partly sunny.14 mph87%29.03 "HgN/A
2:20 PM46 °FBroken clouds.14 mph71%29.12 "HgN/A
1:20 PM46 °FPartly sunny.12 mph71%29.18 "HgN/A
12:20 PM46 °FBroken clouds.10 mph66%29.24 "HgN/A
11:20 AM46 °FBroken clouds.16 mph66%29.30 "HgN/A
10:20 AM45 °FLight rain. Broken clouds.15 mph76%29.33 "HgN/A
9:20 AM43 °FPartly sunny.15 mph81%29.36 "HgN/A
8:20 AM45 °FPartly sunny.18 mph66%29.33 "HgN/A
7:20 AM45 °FPassing clouds.16 mph66%29.36 "HgN/A
6:20 AM43 °FPassing clouds.16 mph76%29.36 "HgN/A
5:20 AM45 °FPassing clouds.23 mph66%29.33 "HgN/A
4:20 AM45 °FQuite cool.24 mph71%29.33 "HgN/A
3:20 AM45 °FQuite cool.28 mph76%29.30 "HgN/A
2:20 AM45 °FQuite cool.29 mph76%29.30 "HgN/A
1:20 AM45 °FQuite cool.31 mph81%29.27 "Hg4 mi
12:20 AM45 °FQuite cool.25 mph81%29.24 "Hg3 mi
11:20 PM
Mon, Feb 8
46 °FCool.26 mph71%29.24 "HgN/A
10:20 PM45 °FQuite cool.25 mph76%29.24 "HgN/A
9:20 PM45 °FQuite cool.24 mph76%29.24 "HgN/A
8:20 PM46 °FCool.23 mph66%29.24 "HgN/A
7:20 PM45 °FPassing clouds.24 mph71%29.24 "HgN/A
6:20 PM46 °FPassing clouds.23 mph66%29.24 "HgN/A
5:20 PM46 °FScattered showers. Partly sunny.21 mph71%29.21 "HgN/A
Weather by CustomWeather, © 2016

See weather overviewHow to use our weather pages